Location: Altmatt
(47.1333°N, 8.7000°E)
Time: 07:15:59
(UTC+00:00)

Lacrosse 5 - Visible Passes

Search period start: 20 October 2020 00:00
Search period end: 30 October 2020 00:00
Orbit: 716 x 723 km, 57.0° (Epoch: 19 October)

Date Brightness Start Highest point End Pass type
(mag) Time Alt. Az. Time Alt. Az. Time Alt. Az.
20 Oct 2.5 17:36:02 10° WSW 17:40:59 54° NNW 17:45:38 12° NE visible
20 Oct 3.4 19:20:31 10° WNW 19:24:49 28° N 19:24:49 28° N visible
21 Oct 3.2 18:26:48 10° WNW 18:31:20 32° NNW 18:33:35 22° NNE visible
21 Oct 4.3 20:11:08 10° NW 20:12:47 18° NW 20:12:47 18° NW visible
22 Oct 2.9 17:33:06 10° W 17:37:52 39° NNW 17:42:19 12° NE visible
22 Oct 3.5 19:17:39 10° WNW 19:21:31 26° N 19:21:31 26° N visible
23 Oct 3.4 18:24:00 10° WNW 18:28:22 28° N 18:30:15 22° NNE visible
23 Oct 4.4 20:07:59 10° NW 20:09:26 17° NW 20:09:26 17° NW visible
24 Oct 3.2 17:30:18 10° WNW 17:34:50 32° NNW 17:38:57 12° NE visible
24 Oct 3.5 19:14:39 10° NW 19:18:09 26° N 19:18:09 26° N visible
25 Oct 3.3 18:21:09 10° WNW 18:25:26 27° N 18:26:51 23° NNE visible
25 Oct 4.4 20:04:43 10° NW 20:06:03 17° NW 20:06:03 17° NW visible
26 Oct 3.3 17:27:31 10° WNW 17:31:52 28° N 17:35:34 13° NE visible
26 Oct 3.4 19:11:30 10° NW 19:14:46 28° NNW 19:14:46 28° NNW visible
27 Oct 3.1 18:18:09 10° NW 18:22:31 28° N 18:23:29 26° NNE visible
27 Oct 4.3 20:01:23 10° NW 20:02:41 18° NW 20:02:41 18° NW visible
28 Oct 3.3 17:24:40 10° WNW 17:28:57 26° N 17:32:14 15° NE visible
28 Oct 3.3 19:08:14 10° NW 19:11:25 31° NNW 19:11:25 31° NNW visible
29 Oct 2.9 18:15:01 10° NW 18:19:33 32° NNE 18:20:11 31° NNE visible
29 Oct 4.3 19:58:02 10° NW 19:59:23 18° NW 19:59:23 18° NW visible
